User: anonymous   Login
Location: Utrecht
(52.0830°N, 5.1330°E)
Time: 02:12:46
(UTC+01:00)
Language:

Cosmos 1092 Rocket - Orbit

View from above orbital plane
View from above orbital plane
View from above satellite
View from above satellite

Ground track
Ground track

The orbit data is extracted from the following two-line orbital elements,

1 11327U 79030B   14354.25290150  .00000097  00000-0  83146-4 0  9008
2 11327 082.9503 251.4804 0027263 204.4398 270.7842 13.76956102793916
Epoch (UTC): 20 December 2014 06:04:10
Eccentricity: 0.0027263
inclination: 82.9503°
perigee height: 954 km
apogee height: 995 km
right ascension of ascending node: 251.4804°
argument of perigee: 204.4398°
revolutions per day: 13.76956102
mean anomaly at epoch: 270.7842°
orbit number at epoch: 79391

The dashed part of the orbit path shows where the satellite is in the earth's shadow,  

DLR